Torna al catalogo

STARLINK-3140

AttivoComunicazioniVLEO
NORAD 49460·PAYLOAD·🇺🇸 United States

Lanciato Nov 13, 2021 da Cape Canaveral Space Force Station

Loading…

Prossimi Passaggi (prossime 24 ore)

TLE

AggiornatoSource: CelesTrak SupGP

Epoca: Sep 14, 2026, 21:13 UTC

1 49460C 21104BE  26257.88451389  .00028464  00000+0  84131-3 0  2579
2 49460  53.1587  77.6260 0001398  87.0759   1.2785 15.34363561    10

Traccia STARLINK-3140 in tempo reale con AllMySat

Download on the App Store